RPC1212 RPLL-RPLC

Flight info

Callsign RPC1212
Flight time 0h 34m
Altitude 6000
Route RPLL OLIVA2A OLIVA CIA RPLC
Aircraft C510/M-V/N

Departure

Time 2026-04-22 02:24
Airport Ninoy Aquino International Airport (RPLL)

Arrival

Time 2026-04-22 02:58
Airport Clark International Airport / Clark Air Base (RPLC)
Time Latitude Longitude Altitude Speed Heading
2026-04-22 02:11 14.50181 121.00203 80 ft 0 kts 239°
2026-04-22 02:16 14.50192 121.00223 80 ft 5 kts 239°
2026-04-22 02:17 14.50205 121.00246 80 ft 1 kts 248°
2026-04-22 02:17 14.50212 121.00259 80 ft 1 kts 237°
2026-04-22 02:17 14.50221 121.00271 80 ft 1 kts 221°
2026-04-22 02:17 14.50234 121.00278 80 ft 1 kts 189°
2026-04-22 02:18 14.50247 121.00275 80 ft 1 kts 155°
2026-04-22 02:18 14.50250 121.00274 80 ft 0 kts 148°
2026-04-22 02:20 14.50196 121.00316 80 ft 14 kts 150°
2026-04-22 02:20 14.50110 121.00312 80 ft 15 kts 238°
2026-04-22 02:20 14.50054 121.00211 80 ft 16 kts 239°
2026-04-22 02:21 14.49995 121.00106 80 ft 14 kts 240°
2026-04-22 02:21 14.49960 121.00043 80 ft 7 kts 240°
2026-04-22 02:21 14.49931 120.99989 80 ft 7 kts 238°
2026-04-22 02:21 14.49877 120.99965 80 ft 7 kts 163°
2026-04-22 02:22 14.49849 120.99980 80 ft 12 kts 150°
2026-04-22 02:23 14.49832 120.99990 80 ft 14 kts 150°
2026-04-22 02:23 14.49829 121.00095 80 ft 20 kts 62°
2026-04-22 02:23 14.49976 121.00355 80 ft 74 kts 56°
2026-04-22 02:23 14.50338 121.01019 120 ft 134 kts 62°
2026-04-22 02:24 14.50863 121.01915 588 ft 159 kts 62°
2026-04-22 02:24 14.51501 121.03028 988 ft 199 kts 61°
2026-04-22 02:24 14.52226 121.04312 1594 ft 215 kts 62°
2026-04-22 02:24 14.52989 121.05673 2230 ft 227 kts 62°
2026-04-22 02:25 14.53832 121.07191 2319 ft 261 kts 62°
2026-04-22 02:25 14.54773 121.08905 2313 ft 287 kts 62°
2026-04-22 02:25 14.55800 121.10791 2117 ft 308 kts 62°
2026-04-22 02:25 14.56804 121.12635 2837 ft 297 kts 62°
2026-04-22 02:26 14.57816 121.14498 3143 ft 303 kts 62°
2026-04-22 02:26 14.58571 121.16580 3099 ft 314 kts 84°
2026-04-22 02:26 14.58270 121.18757 3314 ft 311 kts 114°
2026-04-22 02:26 14.56979 121.20542 3552 ft 306 kts 142°
2026-04-22 02:27 14.55334 121.21934 3446 ft 292 kts 142°
2026-04-22 02:27 14.53919 121.23132 3197 ft 250 kts 141°
2026-04-22 02:27 14.52666 121.24178 3094 ft 214 kts 141°
2026-04-22 02:27 14.51726 121.25234 3087 ft 199 kts 115°
2026-04-22 02:28 14.51704 121.26646 3128 ft 206 kts 71°
2026-04-22 02:28 14.52645 121.27741 3131 ft 213 kts 28°
2026-04-22 02:28 14.54105 121.27914 3130 ft 215 kts 344°
2026-04-22 02:28 14.55290 121.27047 3127 ft 212 kts 302°
2026-04-22 02:29 14.55828 121.25651 3157 ft 212 kts 288°
2026-04-22 02:29 14.56337 121.24221 3182 ft 212 kts 288°
2026-04-22 02:29 14.56869 121.22778 3151 ft 216 kts 289°
2026-04-22 02:29 14.57412 121.21353 3155 ft 217 kts 290°
2026-04-22 02:30 14.58016 121.19912 3162 ft 217 kts 292°
2026-04-22 02:30 14.58639 121.18536 3165 ft 216 kts 293°
2026-04-22 02:30 14.59305 121.17154 3172 ft 215 kts 294°
2026-04-22 02:30 14.60005 121.15768 3152 ft 217 kts 296°
2026-04-22 02:31 14.60742 121.14426 3138 ft 218 kts 298°
2026-04-22 02:31 14.61524 121.13083 3119 ft 219 kts 300°
2026-04-22 02:31 14.62367 121.11752 3104 ft 220 kts 302°
2026-04-22 02:31 14.63245 121.10450 3087 ft 221 kts 304°
2026-04-22 02:32 14.64078 121.09130 3064 ft 221 kts 294°
2026-04-22 02:32 14.64582 121.07651 3038 ft 220 kts 284°
2026-04-22 02:32 14.64947 121.06117 3024 ft 219 kts 280°
2026-04-22 02:32 14.65251 121.04577 3021 ft 218 kts 279°
2026-04-22 02:33 14.65517 121.03030 3018 ft 218 kts 278°
2026-04-22 02:33 14.65784 121.01511 3157 ft 210 kts 278°
2026-04-22 02:33 14.66023 121.00086 3420 ft 200 kts 278°
2026-04-22 02:33 14.66266 120.98659 3458 ft 202 kts 277°
2026-04-22 02:34 14.66499 120.97268 3777 ft 189 kts 277°
2026-04-22 02:34 14.66722 120.95978 4134 ft 175 kts 277°
2026-04-22 02:34 14.66925 120.94810 4589 ft 167 kts 277°
2026-04-22 02:34 14.67137 120.93547 5146 ft 196 kts 277°
2026-04-22 02:35 14.67376 120.92072 5710 ft 222 kts 277°
2026-04-22 02:35 14.68002 120.90577 6100 ft 241 kts 308°
2026-04-22 02:35 14.69320 120.89598 6332 ft 228 kts 326°
2026-04-22 02:35 14.70752 120.88641 6554 ft 253 kts 324°
2026-04-22 02:36 14.72165 120.87691 6501 ft 237 kts 325°
2026-04-22 02:36 14.73556 120.86752 6129 ft 237 kts 325°
2026-04-22 02:36 14.74889 120.85849 6099 ft 224 kts 324°
2026-04-22 02:36 14.76163 120.84989 6095 ft 213 kts 324°
2026-04-22 02:37 14.77373 120.84162 6063 ft 207 kts 324°
2026-04-22 02:37 14.78558 120.83366 6024 ft 201 kts 324°
2026-04-22 02:37 14.79710 120.82582 5972 ft 198 kts 324°
2026-04-22 02:37 14.80850 120.81773 5915 ft 196 kts 323°
2026-04-22 02:38 14.81996 120.81001 5793 ft 199 kts 325°
2026-04-22 02:38 14.83192 120.80198 5483 ft 208 kts 325°
2026-04-22 02:38 14.84388 120.79394 5484 ft 201 kts 325°
2026-04-22 02:38 14.85525 120.78625 5573 ft 190 kts 325°
2026-04-22 02:39 14.86580 120.77913 5793 ft 175 kts 325°
2026-04-22 02:39 14.87555 120.77254 6048 ft 158 kts 328°
2026-04-22 02:39 14.88425 120.76608 6126 ft 155 kts 327°
2026-04-22 02:39 14.89330 120.75978 6126 ft 156 kts 329°
2026-04-22 02:40 14.90236 120.75370 6128 ft 157 kts 329°
2026-04-22 02:40 14.91164 120.74753 6129 ft 159 kts 329°
2026-04-22 02:40 14.92098 120.74131 6129 ft 159 kts 329°
2026-04-22 02:40 14.93029 120.73507 6129 ft 160 kts 329°
2026-04-22 02:41 14.93970 120.72875 6130 ft 161 kts 329°
2026-04-22 02:41 14.94900 120.72246 6130 ft 162 kts 329°
2026-04-22 02:41 14.95846 120.71603 6172 ft 159 kts 329°
2026-04-22 02:41 14.96723 120.71002 6414 ft 143 kts 329°
2026-04-22 02:42 14.97575 120.70420 6344 ft 152 kts 329°
2026-04-22 02:42 14.98461 120.69816 6334 ft 154 kts 329°
2026-04-22 02:42 14.99366 120.69199 6333 ft 160 kts 329°
2026-04-22 02:42 15.00337 120.68539 6347 ft 174 kts 329°
2026-04-22 02:43 15.01386 120.67825 6343 ft 187 kts 329°
2026-04-22 02:43 15.02495 120.67069 6340 ft 196 kts 329°
2026-04-22 02:43 15.03667 120.66266 6337 ft 204 kts 329°
2026-04-22 02:43 15.04871 120.65442 6335 ft 210 kts 329°
2026-04-22 02:44 15.06094 120.64604 6334 ft 215 kts 329°
2026-04-22 02:44 15.07346 120.63747 6333 ft 218 kts 329°
2026-04-22 02:44 15.08611 120.62881 6332 ft 220 kts 329°
2026-04-22 02:44 15.09899 120.61997 6331 ft 222 kts 329°
2026-04-22 02:45 15.11191 120.61112 6333 ft 224 kts 329°
2026-04-22 02:45 15.12466 120.60237 6325 ft 211 kts 329°
2026-04-22 02:45 15.12501 120.60213 6325 ft 210 kts 329°
2026-04-22 02:46 15.12711 120.60068 6321 ft 207 kts 329°
2026-04-22 02:46 15.13856 120.59280 6214 ft 195 kts 329°
2026-04-22 02:46 15.14993 120.58500 5956 ft 193 kts 329°
2026-04-22 02:47 15.16100 120.57742 5707 ft 191 kts 329°
2026-04-22 02:47 15.17213 120.57015 5462 ft 190 kts 330°
2026-04-22 02:47 15.18404 120.56475 5217 ft 185 kts 358°
2026-04-22 02:47 15.19558 120.56850 5130 ft 173 kts 35°
2026-04-22 02:48 15.20480 120.57519 5198 ft 146 kts 36°
2026-04-22 02:48 15.21269 120.58101 5148 ft 128 kts 36°
2026-04-22 02:48 15.21946 120.58606 5111 ft 116 kts 37°
2026-04-22 02:48 15.22201 120.58798 5113 ft 116 kts 37°
2026-04-22 02:49 15.22850 120.59288 5091 ft 117 kts 37°
2026-04-22 02:49 15.23530 120.59803 4730 ft 119 kts 37°
2026-04-22 02:49 15.24148 120.60272 4676 ft 106 kts 37°
2026-04-22 02:49 15.24787 120.60759 4369 ft 125 kts 38°
2026-04-22 02:50 15.25534 120.61332 4066 ft 136 kts 38°
2026-04-22 02:50 15.26286 120.61910 3845 ft 134 kts 38°
2026-04-22 02:50 15.27037 120.62487 3618 ft 134 kts 38°
2026-04-22 02:50 15.27790 120.63054 3390 ft 135 kts 34°
2026-04-22 02:51 15.28583 120.63554 3150 ft 135 kts 43°
2026-04-22 02:51 15.29330 120.64136 2921 ft 135 kts 30°
2026-04-22 02:51 15.30074 120.64716 2694 ft 135 kts 41°
2026-04-22 02:51 15.30809 120.65356 2382 ft 140 kts 41°
2026-04-22 02:52 15.31566 120.66002 2285 ft 140 kts 40°
2026-04-22 02:52 15.32288 120.66512 2542 ft 117 kts 20°
2026-04-22 02:52 15.33062 120.66437 2733 ft 122 kts 336°
2026-04-22 02:52 15.33652 120.65768 2746 ft 137 kts 294°
2026-04-22 02:53 15.33667 120.64790 2736 ft 140 kts 251°
2026-04-22 02:53 15.33110 120.63951 2745 ft 143 kts 231°
2026-04-22 02:53 15.32592 120.63071 2727 ft 144 kts 247°
2026-04-22 02:53 15.32164 120.62143 2722 ft 143 kts 233°
2026-04-22 02:54 15.31402 120.61521 2732 ft 140 kts 209°
2026-04-22 02:54 15.30510 120.61037 2586 ft 149 kts 204°
2026-04-22 02:54 15.29604 120.60623 2389 ft 135 kts 201°
2026-04-22 02:54 15.28772 120.60274 2206 ft 127 kts 200°
2026-04-22 02:55 15.27930 120.59937 2054 ft 135 kts 199°
2026-04-22 02:55 15.27069 120.59597 1876 ft 129 kts 199°
2026-04-22 02:55 15.26246 120.59272 1699 ft 124 kts 199°
2026-04-22 02:55 15.25447 120.58957 1533 ft 121 kts 199°
2026-04-22 02:56 15.24665 120.58649 1377 ft 123 kts 199°
2026-04-22 02:56 15.23862 120.58331 1214 ft 123 kts 199°
2026-04-22 02:56 15.23056 120.58013 1046 ft 123 kts 200°
2026-04-22 02:56 15.22266 120.57700 880 ft 121 kts 200°
2026-04-22 02:57 15.21485 120.57390 721 ft 120 kts 200°
2026-04-22 02:57 15.20717 120.57086 571 ft 118 kts 200°
2026-04-22 02:57 15.19947 120.56780 438 ft 117 kts 200°
2026-04-22 02:57 15.19236 120.56497 422 ft 97 kts 200°
2026-04-22 02:58 15.18702 120.56290 439 ft 69 kts 201°
2026-04-22 02:58 15.18502 120.56208 445 ft 57 kts 200°
2026-04-22 02:58 15.18270 120.56120 449 ft 43 kts 198°